National Weather Service United States Department of Commerce

Latest Hourly Weather Roundup

TOPSWRTT 000
TTAA00 KICT 181012

Wichita AWIPS Roundup
National Weather Service Wichita KS
500 AM CDT FRI AUG 18 2017

....Central Kansas....
  
CITY           SKY/WX    TMP DP  RH WIND       PRES   REMARKS
RUSSELL        CLOUDY    65  60  84 S10       29.93S                  
SALINA         CLOUDY    71  63  75 SW13      29.91R                  
GREAT BEND     CLOUDY    64  62  93 S5        29.97F                  
ELLSWORTH      CLEAR     64  63  94 SW3       29.93R                  
MCPHERSON      NOT AVBL                                               
HAYS           PTCLDY    63  59  87 SW9       29.97R                  

....South Central Kansas....
  
CITY           SKY/WX    TMP DP  RH WIND       PRES   REMARKS
HUTCHINSON     MOCLDY    67  64  90 SW3       29.94F                  
NEWTON         CLOUDY    68  64  87 S3        29.95F                  
KINGMAN        NOT AVBL                                               
WICHITA (ICT)  CLOUDY    69  65  86 S12       29.94F                  
JABARA ARPT    CLOUDY    69  64  84 SE6       29.94F                  
BEECH ARPT     FAIR      70  62  74 SE13      29.94F                  
MCCONNELL AFB  MOCLDY    70  63  79 S8        29.95F                  
BENTON         FAIR      67  63  84 S10       29.95F                  
EL DORADO      FAIR      70  64  83 SE5       29.96F                  
AUGUSTA        FAIR      66  63  88 SE8       29.95F                  
HARPER           N/A     70  64  83 MISG      30.01S                  
WELLINGTON     CLEAR     70  64  83 SE6       29.96S                  
WINFIELD       CLOUDY    72  63  73 E3        29.99S                  
 
....Southeast Kansas....
  
CITY           SKY/WX    TMP DP  RH WIND       PRES   REMARKS
EUREKA         NOT AVBL                                               
IOLA           FAIR      63  63 100 CALM      29.99S                  
CHANUTE        MOCLDY    67  63  87 S3        29.98S                  
PARSONS        MOCLDY    64  63  96 CALM      29.98F                  
COFFEYVILLE    PTCLDY    65  64  97 SE3       29.97F                  
INDEPENDENCE   MOCLDY    65  64  96 S3        29.97F                  
FORT SCOTT     CLEAR     63  57  82 SW3       29.96F                  
PITTSBURG      CLEAR     64  64 100 CALM      29.97F                  

....Western Kansas....
  
CITY           SKY/WX    TMP DP  RH WIND       PRES   REMARKS
GOODLAND       CLEAR     60  55  83 S13       30.03R                  
HILL CITY      CLOUDY    66  58  75 SW6       29.98R                  
LIBERAL        LGT RAIN  62  59  90 SE16G23   30.06F                  
GARDEN CITY    CLOUDY    65  61  87 S12       30.02F                  
DODGE CITY     CLOUDY    68  59  73 S13       30.02F                  
PRATT          CLOUDY    68  58  70 S5        29.99F                  
MEDICINE LODGE   N/A     68  61  78 W3        29.99S                  

....Northeast Kansas....
  
CITY           SKY/WX    TMP DP  RH WIND       PRES   REMARKS
CONCORDIA      MOCLDY    67  62  84 W7        29.95R                  
TOPEKA         PTCLDY    64  62  93 SE3       29.93F                  
MANHATTAN      CLOUDY    68  64  87 CALM      29.91F                  
LAWRENCE       MOCLDY    61  61 100 CALM      29.95S                  
OLATHE         PTCLDY    63  61  93 S3        29.95F                  
EMPORIA        CLOUDY    69  60  73 S6        29.95F                  

....Oklahoma....
  
CITY           SKY/WX    TMP DP  RH WIND       PRES   REMARKS
GAGE           LGT RAIN  68  63  84 NW21G32   30.13R                  
PONCA CITY     PTCLDY    70  66  87 CALM      29.96S                  
BARTLESVILLE   MOCLDY    66  64  93 CALM      29.97F                  
TULSA          CLOUDY    74  72  93 CALM      29.96S                  
OKLAHOMA CITY  PTCLDY    71  70  96 S5        30.00F                  

Note: "fair" indicates few or no clouds below 12,000 feet with no
significant weather and/or obstructions to visibility.